Regional Weather Roundup
Issued by NWS

Home | Current Version | Previous Version | Graphics & Text | Print | Product List | Glossary On
Versions: 1 2 3 4 5 6 7 8 9 10 11 12 13 14 15 16 17 18 19 20 21 22 23 24 25 26 27
000
ASUS45 KBOU 181506
RWRCO

WEATHER ROUNDUP FOR COLORADO
NATIONAL WEATHER SERVICE DENVER/BOULDER CO
900 AM MDT FRI APR 18 2014

NOTE: "FAIR" INDICATES FEW OR NO CLOUDS BELOW 12000 FEET WITH NO
SIGNIFICANT WEATHER AND/OR OBSTRUCTIONS TO VISIBILITY.

COZ001>005-013-030-031-181600-
...NORTHWEST COLORADO...

CITY           SKY/WX    TMP DP  RH WIND       PRES   REMARKS
CRAIG          PTSUNNY   48  31  51 CALM      30.05S
HAYDEN         PTSUNNY   46  28  49 E13       30.09S
MEEKER         PTSUNNY   48  34  58 CALM      30.06S
MOUNT WERNER   PTSUNNY   45  14  29 S16G23    30.24F
STEAMBOAT SPGS PTSUNNY   39  24  54 CALM      30.10S
WALDEN         CLOUDY    46  25  42 SE9       30.13F
$$

COZ006>008-011-181600-
...WEST CENTRAL VALLEYS...

CITY           SKY/WX    TMP DP  RH WIND       PRES   REMARKS
GRAND JUNCTION PTSUNNY   56  26  31 SE20      30.03R
MONTROSE       PTSUNNY   52  29  41 CALM      30.11S
EAGLE          MOSUNNY   37  28  70 CALM      30.18S
RIFLE          MOSUNNY   45  28  51 CALM      30.10R
DELTA          PTSUNNY   51  30  43 NE7       30.10S
NUCLA            N/A     50  28  43 CALM      30.14S
$$

COZ017>023-064>068-181600-
...SOUTHWEST COLORADO...

CITY           SKY/WX    TMP DP  RH WIND       PRES   REMARKS
DURANGO        MOSUNNY   50  26  39 E3        30.19S
CORTEZ         SUNNY     53  28  38 W3        30.12S
PAGOSA SPRINGS MOSUNNY   47  23  39 CALM      30.24S
TELLURIDE      MOSUNNY   50  23  34 CALM      30.24S
WOLF CREEK PAS MOSUNNY   34  19  55 SW14G20   30.37R WCI  24
$$

COZ009-010-012-014-032>034-037-058>063-181600-
...CENTRAL COLORADO...

CITY           SKY/WX    TMP DP  RH WIND       PRES   REMARKS
ASPEN          PTSUNNY   51  23  33 VRB3      30.15S
BUENA VISTA    PTSUNNY   44  24  45 CALM      30.20F
COPPER MTN     MOSUNNY   37  21  52 SW8G21    30.34F
BERTHOUD PASS  FAIR      32  23  69 W25G35    30.35R WCI  19
COTTONWOOD PAS PTSUNNY   45  19  36 CALM      30.26S
GUNNISON       PTSUNNY   36  23  60 CALM      30.27F
KREMMLING      MOSUNNY   36  27  69 CALM      30.19S
LEADVILLE      PTSUNNY   38  18  44 CALM      30.26S
MONARCH PASS   MOSUNNY   34  18  51 W20       30.45S WCI  22
SALIDA         PTSUNNY   48  27  43 N9        30.25F
SUNLIGHT       PTSUNNY   41  27  56 CALM      30.29R
WILKERSON PASS MOSUNNY   37  16  41 W9G20     30.32S
$$

COZ069>075-181600-
...SAN LUIS VALLEY/SANGRE DE CRISTO MOUNTAINS...

CITY           SKY/WX    TMP DP  RH WIND       PRES   REMARKS
ALAMOSA        MOSUNNY   43  29  57 W6        30.23S
LA VETA PASS   SUNNY     39  23  52 SW8       30.28R
SAGUACHE       MOSUNNY   46  23  39 NW3       30.24
$$

COZ035-036-038>040-181600-
...NORTHERN COLORADO FRONT RANGE...

CITY           SKY/WX    TMP DP  RH WIND       PRES   REMARKS
DENVER INTL AP MOSUNNY   64  29  26 S12       29.99F
DMNS CITY PARK   N/A     61  29  29 S5G10     29.99S
AURORA         PTSUNNY   61  27  27 S14       30.02F
FRONT RANGE AP MOSUNNY   64  30  27 S9        30.01F
ERIE MUNI ARPT MOSUNNY   50  38  63 CALM      30.00S
BOULDER MUN AP MOSUNNY   52  32  46 CALM      29.99F
CENTENNIAL     MOSUNNY   61  28  28 SE7       30.02F
BROOMFIELD     PTSUNNY   54  28  37 CALM      30.01S
FORT COLLINS   MOSUNNY   48  36  61 CALM      30.01S
LONGMONT       MOSUNNY   55  36  48 CALM      30.01S
$$

COZ041-046-047-076>085-087-088-181600-
...PIKES PEAK/PALMER DIVIDE AND SOUTHERN FOOTHILLS...

CITY           SKY/WX    TMP DP  RH WIND       PRES   REMARKS
COLO. SPRINGS  MOSUNNY   55  35  47 NE5       30.07F
A. F. ACADEMY  SUNNY     53  32  46 S10       30.08S
ELLICOTT       NOT AVBL
FALCON         SUNNY     55  31  40 CALM      30.10S
FORT CARSON    SUNNY     48  37  65 N1        30.06S
LIMON          MOSUNNY   44  36  73 CALM      30.05F
MONUMENT HILL  SUNNY     59  23  25 SW6       30.08S
TRINIDAD       SUNNY     53  34  48 SW15      30.09F
$$

COZ042>045-048>051-090-091-181600-
...NORTHEAST COLORADO...

CITY           SKY/WX    TMP DP  RH WIND       PRES   REMARKS
GREELEY ARPT   MOSUNNY   45  34  65 CALM      30.01S
AKRON          PTSUNNY   59  35  40 SW9       29.99S
BURLINGTON     SUNNY     49  38  65 S16       30.04F
WRAY           MOSUNNY   52  38  59 S9        30.02F
STERLING       PTSUNNY   52  41  66 SW8       29.98S
HOLYOKE        MOSUNNY   54  39  58 S13       30.00F
FORT MORGAN    PTSUNNY   52  37  56 SW9       30.00S
$$

COZ086-089-092>099-181600-
...SOUTHEAST COLORADO...

CITY           SKY/WX    TMP DP  RH WIND       PRES   REMARKS
PUEBLO         SUNNY     46  37  71 VRB3      30.06S
LA JUNTA       SUNNY     47  36  65 W9        30.06F
LAMAR          SUNNY     53  37  54 W9        30.04F
SPRINGFIELD      N/A     51  37  58 SW15G23   30.06F
$$



USA.gov is the U.S. government's official web portal to all federal, state and local government web resources and services.